Home > Weather > Sandefjord > Past weeks

Flag for Norway Past Weather in Sandefjord, Norway — Yesterday and Last 2 Weeks

Now
57 °F

Light rain. Partly sunny.


Feels Like: 55 °F
Forecast: 53 / 69 °F
Wind: 12 mph from Southwest

Location: Torp

Current Time: Jun 27, 2016 at 9:44:42 AM

Latest Report: Jun 27, 2016 at 8:50 AM


Visibility: N/A

Pressure: 29.77 "Hg

Humidity: 100%

Dew Point: 57 °F

Location of SandefjordLocation

Past Weather in Sandefjord — Graph

°F

Sandefjord Temperature Yesterday

Maximum temperature yesterday: 64 °F (at 12:50 PM)
Minimum temperature yesterday: 57 °F (at 11:50 PM)
Average temperature yesterday: 61 °F

High & Low Weather Summary for the Past Weeks

 TemperatureHumidityPressure
High73 °F (Jun 16, 3:50 PM)100% (Jun 15, 7:50 AM)30.18 "Hg (Jun 15, 7:50 AM)
Low46 °F (Jun 13, 4:20 AM)29% (Jun 13, 6:50 PM)29.56 "Hg (Jun 16, 6:20 PM)
Average60 °F83%29.82 "Hg
* Reported Jun 12 8:20 AM — Jun 27 8:20 AM, Sandefjord, Weather by CustomWeather, © 2016

Note: Actual official high and low records may vary slightly from our data, if they occured in-between our weather recording intervals... More about our weather records

Advertising

Sandefjord Weather History for the Previous 24 Hours

Scroll right to see more
 ConditionsComfort  
Time TempWeatherWind HumidityBarometerVisibility
8:20 AM
Mon, Jun 27
59 °FBroken clouds.12 mph94%29.77 "HgN/A
7:50 AM59 °FScattered clouds.12 mph94%29.77 "HgN/A
7:20 AM57 °FScattered clouds.9 mph100%29.77 "HgN/A
6:50 AM57 °FScattered showers. Passing clouds.8 mph94%29.77 "HgN/A
6:20 AM55 °FScattered showers. Scattered clouds.7 mph94%29.77 "HgN/A
5:50 AM55 °FScattered showers. Scattered clouds.8 mph100%29.77 "HgN/A
5:20 AM55 °FScattered clouds.8 mph100%29.77 "HgN/A
4:50 AM54 °FCool.7 mph100%29.77 "HgN/A
4:20 AM54 °FCool.9 mph100%29.77 "HgN/A
3:50 AM54 °FCool.8 mph100%29.77 "HgN/A
3:20 AM55 °FCool.10 mph94%29.77 "HgN/A
2:50 AM55 °FCool.10 mph100%29.80 "HgN/A
2:20 AM55 °FCool.13 mph100%29.80 "HgN/A
1:50 AM55 °FCool.13 mph100%29.80 "HgN/A
1:20 AM55 °FPassing clouds.12 mph100%29.80 "HgN/A
12:50 AM55 °FPassing clouds.13 mph100%29.80 "HgN/A
12:20 AM57 °FPassing clouds.12 mph94%29.80 "HgN/A
11:50 PM
Sun, Jun 26
57 °FPassing clouds.15 mph94%29.80 "HgN/A
11:20 PM59 °FScattered clouds.14 mph94%29.80 "HgN/A
10:50 PM59 °FBroken clouds.17 mph94%29.80 "HgN/A
10:20 PM59 °FPartly sunny.16 mph94%29.80 "HgN/A
9:50 PM59 °FPartly sunny.14 mph94%29.80 "HgN/A
9:20 PM59 °FBroken clouds.16 mph94%29.77 "HgN/A
8:50 PM59 °FPartly sunny.17 mph94%29.77 "HgN/A
8:20 PM59 °FPartly sunny.18 mph94%29.77 "HgN/A
7:50 PM61 °FBroken clouds.18 mph88%29.77 "HgN/A
7:20 PM61 °FMostly cloudy.16 mph94%29.77 "HgN/A
6:50 PM61 °FMostly cloudy.17 mph94%29.77 "HgN/A
6:20 PM61 °FOvercast.20 mph94%29.77 "HgN/A
5:50 PM59 °FBroken clouds.15 mph100%29.77 "HgN/A
5:20 PM61 °FBroken clouds.16 mph100%29.77 "HgN/A
4:50 PM61 °FBroken clouds.15 mph100%29.77 "HgN/A
4:20 PM61 °FBroken clouds.16 mph100%29.77 "HgN/A
3:50 PM61 °FMore clouds than sun.17 mph100%29.74 "HgN/A
3:20 PM61 °FMore clouds than sun.16 mph100%29.74 "Hg6 mi
2:50 PM61 °FLow clouds.15 mph100%29.74 "HgN/A
2:20 PM63 °FRain. Fog.10 mph100%29.74 "Hg2 mi
1:50 PM64 °FDrizzle. Fog.3 mph100%29.71 "Hg2 mi
1:20 PM64 °FDrizzle. Fog.7 mph100%29.71 "Hg2 mi
12:50 PM64 °FBroken clouds.8 mph100%29.74 "HgN/A
12:20 PM63 °FPartly sunny.9 mph100%29.74 "HgN/A
11:50 AM63 °FLight rain. Broken clouds.12 mph100%29.74 "HgN/A
11:20 AM63 °FLight rain. Broken clouds.12 mph100%29.74 "HgN/A
10:50 AM63 °FBroken clouds.10 mph100%29.74 "HgN/A
10:20 AM63 °FBroken clouds.13 mph100%29.74 "HgN/A
9:50 AM63 °FBroken clouds.9 mph100%29.74 "HgN/A
9:20 AM61 °FBroken clouds.9 mph100%29.77 "HgN/A
Weather by CustomWeather, © 2016

See weather overviewHow to use our weather pages